Theta_e
301 287 283 282 283 288 288 289 289 290 289 288 287 284 284 283 284 288 287 292 291 285 284 285 285 282 281 281 282 283 284 284 283 282 281 280 280 280 279 279 279 280 281 285 285 285 285 285 285 285 284 284 284 284 283 283 283 283 282 283 282 284 284 284 284 284 284 283 282 282 281 280 280 281 282 281 280 279 279 280 280 280 280 281 281 281
300 286 283 287 288 288 288 291 291 290 290 288 285 283 281 284 281 285 286 291 292 285 282 285 285 280 280 281 281 282 282 281 281 280 280 279 279 279 279 280 281 281 284 284 283 284 284 284 285 283 282 283 280 281 281 280 280 280 280 280 281 281 281 281 282 282 282 282 283 282 282 280 280 280 280 280 280 279 281 280 280 280 279 279 279 280
286 283 287 289 290 290 290 291 290 287 287 287 283 282 280 280 284 287 290 290 289 286 283 285 283 280 279 280 280 280 280 280 281 280 280 279 279 279 280 280 281 281 281 282 283 283 283 283 282 281 281 281 280 280 280 280 279 279 279 279 279 279 280 280 281 281 280 282 283 283 282 283 282 283 282 281 281 281 280 279 279 279 279 279 278 278
284 286 289 291 291 290 293 291 288 286 288 284 283 280 278 282 280 277 284 287 287 285 282 284 281 280 279 279 279 280 280 280 281 282 281 282 279 279 280 281 280 280 281 281 281 281 282 281 280 279 279 280 280 280 278 278 278 278 278 277 277 277 278 279 280 282 281 281 281 282 283 283 282 282 283 281 280 280 280 279 280 280 280 280 278 278
285 290 290 291 290 291 289 289 285 282 282 286 285 281 279 280 281 280 281 285 287 287 285 282 280 278 277 276 276 279 280 280 280 280 280 280 281 281 283 282 281 280 280 280 280 280 280 278 278 278 279 279 279 279 278 277 277 277 276 276 276 276 277 277 280 279 279 280 280 281 281 282 282 282 281 280 279 280 281 280 279 279 280 280 279 278
287 291 292 290 290 290 288 285 285 282 279 281 283 284 283 283 281 283 284 283 280 279 281 281 274 275 277 277 276 276 277 277 278 278 278 279 280 280 280 280 281 282 280 280 279 279 279 277 277 277 277 278 278 278 278 277 276 276 276 276 276 277 277 277 278 278 279 278 277 278 278 277 278 278 278 277 277 278 278 278 278 280 280 279 279 278
289 292 292 290 289 289 287 285 286 284 278 279 283 286 284 282 282 282 282 280 275 273 280 284 273 271 277 276 275 276 276 276 277 277 278 279 279 280 279 279 279 279 279 280 280 279 277 276 276 276 277 278 278 279 278 277 276 276 276 276 276 276 276 277 277 277 278 277 277 277 277 278 277 277 278 279 279 279 279 279 278 278 278 278 278 277
294 292 290 291 290 286 284 282 286 284 279 278 285 285 284 282 280 282 281 280 278 282 284 283 280 273 274 275 275 275 275 275 275 276 278 279 280 279 279 279 279 279 279 279 278 278 277 276 276 275 277 278 278 278 277 276 275 275 275 275 275 275 276 276 276 276 276 276 276 276 276 277 278 278 277 278 278 279 280 279 279 278 278 278 278 277
290 289 287 287 288 284 281 285 286 287 279 281 285 286 283 283 283 283 280 279 279 276 275 278 281 274 273 275 275 275 274 273 274 276 278 279 279 279 279 280 280 280 280 279 277 277 276 275 275 276 276 277 277 277 275 275 275 275 275 275 274 274 274 274 275 275 275 275 275 274 274 274 275 276 277 278 279 278 279 277 278 277 278 278 278 277
291 288 289 291 285 281 286 285 287 286 281 286 287 287 286 285 284 284 279 278 278 274 271 276 279 272 273 276 273 274 274 274 274 276 278 278 278 278 278 278 279 280 279 277 277 276 276 276 276 276 277 277 276 276 276 275 275 275 275 274 274 273 273 274 274 274 274 273 274 273 273 272 273 274 274 275 275 275 276 276 276 276 276 276 275 275
288 292 293 289 285 287 284 287 287 286 287 288 287 285 284 284 282 281 279 277 274 270 274 278 279 276 269 275 274 273 272 273 275 277 277 278 278 279 278 278 278 278 277 277 276 276 276 276 276 276 276 276 275 275 274 274 275 275 274 273 272 272 273 274 274 274 272 272 272 272 272 272 272 272 272 272 272 273 274 274 274 274 274 274 274 275
290 290 290 289 293 289 288 287 290 288 287 285 282 281 281 280 280 278 277 276 271 271 276 277 278 278 267 273 275 275 273 274 274 273 275 276 276 277 277 277 278 276 276 276 276 275 276 275 275 276 275 274 274 273 273 273 274 275 273 272 271 272 272 273 273 273 272 272 271 271 271 271 272 272 271 271 270 271 272 272 273 273 274 274 274 273
285 285 287 289 289 288 286 284 287 287 287 285 281 280 276 272 274 271 276 270 272 270 275 276 278 274 274 273 276 276 276 276 276 277 276 276 276 276 276 277 278 276 275 275 275 275 275 274 274 274 273 273 272 272 272 273 273 274 272 271 270 270 271 271 272 272 272 271 270 270 270 270 271 271 271 271 271 271 271 271 271 271 271 272 272 272
283 285 289 288 289 290 287 279 279 279 282 281 278 277 273 269 267 266 270 272 272 276 278 277 278 273 276 275 277 275 278 279 279 278 278 276 275 276 277 277 278 278 276 275 275 275 275 273 273 273 272 272 272 272 272 272 273 273 272 271 270 270 270 271 271 271 270 269 269 269 269 269 270 270 270 270 270 271 271 271 271 271 271 271 270 271
278 279 283 285 281 288 285 282 281 280 280 279 283 279 274 272 268 265 268 266 268 271 276 278 272 270 271 274 277 278 279 280 279 278 278 276 277 277 278 278 278 277 275 274 274 274 273 273 272 272 272 271 271 271 271 271 272 272 272 271 269 269 269 270 269 269 268 268 268 269 269 269 269 269 269 270 271 270 270 270 270 270 270 270 270 271
282 281 285 288 287 287 285 287 286 283 280 280 282 282 276 272 276 269 271 270 268 270 270 272 272 274 275 278 278 278 278 278 279 279 277 274 275 277 277 277 277 276 275 275 274 274 273 272 272 272 271 271 271 271 271 271 271 271 271 271 270 269 268 268 268 268 268 268 268 268 268 268 269 270 269 270 270 270 270 270 270 270 270 270 270 270
280 279 284 287 286 281 283 286 285 285 274 279 280 274 276 278 276 271 274 276 275 273 270 275 275 277 277 276 276 277 277 278 278 278 275 274 276 276 276 276 275 275 274 273 273 273 272 272 272 271 271 271 271 271 271 271 271 270 270 270 269 269 269 268 268 267 267 267 267 268 268 268 268 268 268 268 269 269 270 270 269 269 269 269 269 270
276 279 286 284 283 284 285 285 287 286 284 280 276 276 282 279 278 272 268 270 269 266 269 273 272 273 273 270 274 275 275 276 276 275 272 275 275 275 275 275 274 274 274 273 273 272 272 272 272 271 271 271 270 271 270 270 270 270 270 270 269 268 268 268 267 267 267 267 267 267 267 268 268 268 269 268 268 268 268 268 269 269 269 268 269 270
281 277 282 285 284 285 286 285 283 285 285 281 277 282 275 271 270 274 272 265 265 265 268 271 271 273 274 273 275 275 275 277 276 273 272 274 275 274 275 275 274 274 273 273 272 272 272 271 271 271 270 271 271 271 270 269 269 269 269 269 269 268 268 268 268 267 267 267 267 267 267 268 268 268 268 268 268 268 267 267 268 268 268 269 269 270
284 275 280 283 283 283 283 281 277 278 282 284 284 279 281 276 273 271 271 270 270 267 266 268 271 269 274 273 274 275 275 276 275 272 275 275 275 276 276 275 274 273 273 272 272 271 271 271 270 270 270 269 269 269 269 268 268 268 268 268 268 268 267 267 267 267 266 267 267 267 268 268 267 267 267 267 267 267 267 267 267 267 267 268 269 269
280 282 274 281 283 282 277 279 278 278 276 277 277 276 278 275 277 274 272 269 267 264 265 266 266 271 276 278 277 276 277 277 274 276 276 275 276 276 276 275 274 273 272 272 271 271 271 270 270 270 270 269 269 269 268 267 267 268 268 267 267 266 267 266 266 266 266 266 266 267 266 266 266 266 267 267 266 266 266 266 266 266 266 267 266 267
279 280 276 280 280 279 279 281 281 280 279 279 276 274 275 272 271 267 268 272 269 268 265 264 265 272 278 281 279 278 279 278 279 275 275 275 276 276 275 274 273 272 272 271 271 271 271 270 270 270 270 269 268 267 267 267 267 267 266 266 266 266 266 265 265 265 265 266 266 266 266 266 266 266 265 265 265 265 265 265 265 265 265 265 265 266
281 279 277 276 279 280 279 280 281 283 282 280 278 276 276 276 273 272 266 268 270 270 271 270 267 270 278 280 279 279 279 279 279 276 276 276 276 275 275 273 273 272 271 271 271 271 270 270 269 269 269 268 267 267 266 266 267 266 266 266 266 265 265 265 265 265 265 265 265 265 265 265 265 264 264 264 264 264 264 264 264 265 264 264 265 266
285 278 276 279 281 278 280 281 280 280 280 279 278 278 276 274 274 272 271 270 267 269 268 268 266 271 278 279 280 281 282 279 278 275 275 276 276 276 274 273 272 271 271 270 271 270 270 270 269 268 267 267 266 266 265 266 266 266 266 265 265 264 264 264 264 265 265 265 265 265 264 264 264 263 263 263 263 263 263 264 264 264 264 264 265 264
277 280 277 274 276 277 275 276 277 278 278 276 276 276 277 275 273 271 270 269 267 269 270 266 263 270 279 281 283 283 281 280 277 276 276 276 276 275 274 272 272 271 270 270 270 270 269 269 268 267 267 266 266 266 265 265 265 265 265 265 264 264 264 264 264 264 264 264 263 263 263 263 263 263 263 263 263 263 263 263 263 264 264 264 264 264
279 279 277 273 271 271 271 273 274 274 276 278 278 276 275 273 272 270 269 268 265 269 271 267 269 277 281 283 282 281 280 280 278 277 276 276 275 275 274 272 271 270 269 269 269 269 268 268 268 267 266 266 266 265 265 265 265 265 264 264 264 264 264 264 264 264 263 263 262 262 262 262 262 262 262 262 262 262 263 263 263 263 264 264 264 264
278 280 278 276 275 275 277 279 282 282 279 275 274 274 273 274 274 273 272 269 268 270 270 273 274 275 277 279 279 280 279 278 278 276 276 276 276 275 273 272 271 270 269 268 269 269 269 268 267 266 266 265 265 265 264 264 264 264 264 264 264 263 263 263 263 263 262 262 261 261 261 261 261 262 262 262 262 262 262 262 263 263 263 264 264 264
278 276 279 279 278 280 280 280 281 281 278 278 277 276 274 273 273 271 270 271 275 271 269 275 276 274 276 279 279 279 279 279 277 276 276 277 276 275 272 272 273 269 269 269 269 268 267 267 266 265 265 265 265 264 264 264 264 263 263 262 263 263 263 263 263 262 261 261 261 261 261 261 261 261 262 262 262 262 262 262 263 263 264 264 263 263
277 275 276 273 275 278 279 279 280 279 279 278 278 277 274 274 273 270 271 274 275 270 270 276 277 275 277 278 279 279 280 279 277 277 277 276 276 274 272 271 269 269 268 268 268 268 267 266 265 265 264 264 264 263 263 263 263 263 263 263 262 262 262 262 262 261 261 260 260 260 261 261 261 261 261 261 261 262 262 262 263 263 263 263 263 264
276 276 277 275 275 277 278 279 279 278 278 278 278 278 279 276 273 273 274 275 275 273 276 276 276 275 277 278 279 280 280 279 279 278 277 277 275 273 272 270 268 267 267 267 267 267 267 265 264 264 264 264 263 262 262 262 262 262 262 262 262 262 262 262 261 260 260 259 260 260 260 261 261 261 261 261 261 261 262 262 262 262 262 263 263 264
276 276 277 276 274 277 280 281 279 279 278 277 278 278 278 278 277 276 275 275 276 275 276 275 274 274 279 281 280 280 278 279 279 278 277 276 274 273 271 269 268 267 267 267 267 267 266 265 264 263 263 263 262 262 262 262 262 262 262 261 261 261 262 262 260 260 259 259 260 260 260 260 260 260 260 260 261 261 261 261 262 262 262 262 263 263
275 276 276 275 273 276 280 279 279 279 278 277 277 277 277 276 273 276 275 276 274 273 274 273 272 273 279 279 279 279 279 278 277 277 276 276 275 273 270 267 267 267 267 267 267 266 265 264 263 262 262 262 262 262 261 261 261 262 261 261 260 261 261 261 260 259 259 259 259 259 260 260 259 259 260 260 260 260 261 261 261 261 262 262 262 263
276 276 275 275 272 274 279 279 279 279 276 274 275 277 278 277 278 277 278 277 278 277 273 271 273 279 280 280 279 279 278 278 277 277 276 275 274 271 268 267 267 267 267 267 266 266 264 263 263 262 262 262 261 261 262 262 261 261 261 260 260 261 260 260 259 259 258 259 259 259 259 259 259 259 259 259 260 260 260 260 260 260 261 261 262 262
273 275 275 276 271 273 278 278 278 275 271 276 280 282 280 278 278 276 277 278 279 278 276 278 279 280 280 279 279 278 278 277 277 277 276 275 273 270 269 268 267 267 267 267 266 265 264 264 263 263 262 262 262 262 262 262 262 261 261 261 260 260 259 259 259 258 258 258 258 259 259 259 258 258 259 259 259 260 259 259 259 260 260 261 261 261
274 275 275 276 271 272 275 276 275 270 274 280 279 280 279 279 278 278 278 278 279 279 279 278 279 280 280 280 279 279 279 278 278 276 276 271 270 269 268 268 267 267 266 266 265 264 264 263 263 262 262 261 261 262 262 262 262 261 260 260 259 259 259 258 258 257 257 257 258 258 258 258 258 258 258 258 259 259 259 259 259 259 259 260 260 261
275 274 276 274 273 275 273 274 268 273 282 281 277 277 278 277 276 275 275 278 278 278 279 278 279 280 280 279 279 278 278 277 276 276 272 270 270 268 268 267 268 267 266 266 265 264 263 263 262 262 261 262 262 261 261 261 261 260 259 259 259 259 258 258 257 257 257 257 257 257 257 257 257 257 258 258 258 258 258 258 258 258 259 259 260 261
279 277 275 272 275 269 272 272 274 280 279 280 275 276 275 274 273 273 271 278 278 278 278 278 279 279 279 278 278 277 276 275 273 273 270 270 269 270 269 269 268 268 267 267 266 265 265 263 263 262 262 262 261 261 261 261 260 259 258 258 258 258 257 257 256 256 256 256 256 257 257 257 257 257 257 257 257 257 257 257 257 258 259 259 260 260
280 274 276 272 273 275 271 270 272 272 270 277 278 279 279 278 278 277 273 274 279 279 280 279 278 278 278 277 276 275 275 273 272 272 269 270 270 269 270 270 270 269 268 267 267 266 264 263 263 263 262 261 261 261 261 260 259 258 257 257 257 257 256 256 255 256 256 256 256 256 257 257 257 256 256 256 256 256 257 257 258 258 259 259 259 259
278 278 275 273 272 272 271 268 268 267 273 279 276 277 277 277 278 277 272 273 278 278 278 279 278 278 277 276 275 275 272 270 272 273 269 270 270 270 269 269 269 268 268 267 265 264 264 263 263 262 262 261 260 260 260 260 258 257 257 257 256 256 255 255 255 255 255 256 256 256 256 256 256 256 256 256 256 256 256 257 257 258 259 259 259 260
274 274 273 272 268 271 270 269 269 273 275 278 277 277 276 277 277 275 271 275 275 277 278 278 277 277 277 276 275 274 272 271 274 274 272 272 271 270 269 268 268 268 267 267 266 265 264 264 263 261 261 260 260 260 260 259 257 257 256 256 256 255 254 255 255 256 256 256 256 256 256 256 256 256 255 256 256 256 256 257 257 258 258 259 259 260
271 272 273 271 272 274 274 271 273 276 282 280 277 276 277 278 276 271 271 280 276 277 278 278 277 277 277 276 276 274 276 277 277 274 273 272 271 270 270 270 269 268 267 266 265 265 264 263 262 261 260 260 260 260 259 258 256 255 256 256 255 254 255 256 256 255 255 255 255 255 255 255 255 255 255 256 255 256 257 257 257 258 258 258 259 259
273 272 273 272 271 272 273 272 273 276 282 277 276 277 278 276 272 276 281 279 277 276 278 278 277 278 278 277 277 277 278 278 276 275 274 272 271 270 269 269 268 268 268 267 266 264 264 263 262 261 261 261 260 259 258 257 255 255 255 254 254 255 256 256 255 255 255 255 255 255 255 254 255 255 255 256 256 255 256 257 257 257 258 258 258 258
277 272 273 271 274 275 273 270 271 270 277 278 277 276 277 274 278 281 280 278 279 278 278 278 278 278 278 277 278 278 277 277 275 274 273 272 271 270 269 268 268 267 266 265 265 265 263 261 261 260 260 260 260 259 258 256 255 254 255 254 255 256 256 255 254 254 254 254 254 253 253 254 254 254 255 255 256 255 255 256 257 257 257 257 258 259
280 275 276 278 279 273 273 269 273 281 279 279 280 277 276 279 286 282 281 282 281 279 278 278 278 279 278 278 277 277 277 276 275 274 273 272 271 270 269 268 268 267 266 266 265 264 263 261 261 260 260 260 260 258 258 256 254 254 254 254 256 255 255 253 254 254 254 253 253 253 253 253 254 254 255 255 255 255 255 256 256 257 257 258 259 260
280 279 280 278 279 278 277 280 284 280 278 280 282 285 286 285 283 282 282 282 281 281 280 278 278 278 278 278 277 277 276 276 275 274 272 271 270 269 268 268 267 266 266 265 264 263 262 261 259 259 259 259 258 258 257 255 254 254 253 255 255 254 253 253 253 253 252 252 252 252 252 253 253 253 254 255 255 255 255 255 256 256 257 258 259 260
281 282 278 277 278 280 283 285 286 286 286 284 282 284 284 285 285 284 283 282 282 282 281 280 280 279 278 278 277 276 276 275 274 273 272 271 270 270 269 268 267 267 266 265 264 263 262 261 260 259 258 258 258 257 256 255 255 253 254 255 254 253 253 252 251 251 251 251 251 251 251 251 252 253 254 255 255 255 256 256 256 257 257 258 258 260
279 278 279 276 278 278 276 282 281 283 284 284 285 285 285 285 285 285 283 283 283 282 281 280 280 279 279 278 277 276 276 275 274 273 272 271 270 269 268 267 267 266 265 264 264 263 261 259 258 258 257 256 257 255 255 255 256 256 256 254 254 254 253 251 250 251 250 250 250 251 251 251 252 253 254 254 255 255 256 256 256 256 257 257 258 259
279 280 278 279 278 277 279 283 284 285 286 286 286 285 285 285 284 284 284 284 283 282 281 281 279 279 278 277 277 276 276 275 274 272 271 271 270 269 268 267 266 266 266 265 263 262 260 259 257 256 256 256 256 256 256 255 255 255 255 255 255 253 252 250 250 250 249 250 250 251 251 252 254 254 254 254 254 254 255 255 256 256 256 256 257 258
279 280 276 278 278 280 282 283 284 284 284 285 285 284 285 285 284 283 282 282 282 281 280 279 280 279 278 278 277 276 275 275 274 273 271 271 270 269 268 267 267 266 265 264 263 261 259 258 257 256 255 255 255 255 255 254 254 255 255 255 254 252 250 250 251 250 249 250 250 250 252 253 253 253 253 253 254 255 255 255 255 256 256 258 259 260
279 278 280 278 277 277 279 283 282 281 282 285 285 285 284 284 283 283 281 280 280 280 280 279 279 278 278 277 277 276 275 274 273 272 271 270 270 269 268 267 266 265 264 263 262 260 259 258 257 256 255 255 255 255 254 254 254 254 254 254 253 252 250 250 250 249 249 249 250 251 252 252 252 252 253 253 253 254 255 258 260 260 259 260 264 266
279 281 279 277 276 279 284 285 283 284 285 286 287 286 283 282 282 281 282 282 281 281 280 279 279 277 276 277 277 276 275 274 273 272 271 270 269 269 268 266 265 264 263 262 260 259 258 258 257 255 255 255 254 254 253 253 254 253 253 254 253 252 251 249 249 249 249 250 250 251 251 251 252 252 252 253 253 253 254 255 257 262 263 263 264 266
Wind_Speed
1 8 10 6 2 3 4 3 3 2 4 4 5 4 7 8 4 5 9 1 2 2 2 4 2 6 5 4 4 3 3 4 5 6 5 5 5 4 3 3 3 2 2 4 4 3 6 7 7 7 6 6 5 6 6 8 9 10 9 10 10 9 10 9 8 6 6 6 7 9 8 7 6 6 7 5 3 3 3 4 3 1 0 1 2 2
2 11 5 4 3 3 2 2 2 4 3 5 4 4 4 5 9 10 10 1 3 0 3 4 2 7 5 3 4 3 3 3 5 6 6 5 4 4 3 2 1 1 2 4 6 6 6 6 8 8 6 9 10 8 11 11 11 12 11 11 13 13 14 14 13 12 8 3 6 6 9 9 7 7 6 5 4 3 2 2 3 3 3 3 2 2
9 7 2 4 4 2 2 3 5 7 5 3 3 2 3 3 8 9 2 5 5 5 7 4 4 5 4 5 3 3 2 2 3 4 4 5 4 3 2 4 1 3 3 4 7 7 7 8 10 9 10 9 5 7 8 9 11 12 11 11 12 13 13 12 12 12 11 8 6 8 8 9 9 9 7 6 5 5 4 3 2 3 5 6 6 4
5 3 4 2 3 5 0 2 8 9 3 2 1 3 4 5 6 7 6 6 10 4 5 4 6 3 4 3 3 1 3 2 3 3 3 2 2 2 0 1 3 3 4 5 5 8 8 10 10 11 12 11 5 6 5 9 11 10 11 13 14 15 15 13 11 13 12 12 13 11 10 11 10 8 9 7 5 5 5 5 4 4 3 1 1 1
5 2 3 3 4 3 4 4 7 7 6 1 3 1 5 7 8 4 9 10 11 3 3 3 7 4 4 5 4 4 3 3 3 4 3 3 3 3 2 3 3 2 3 6 9 10 9 9 10 13 14 14 10 8 8 9 10 10 14 15 16 15 14 13 12 13 15 14 12 12 13 9 7 7 9 8 7 7 7 7 5 4 3 3 1 0
4 2 2 5 3 5 5 4 5 5 4 5 2 1 6 6 8 10 8 9 5 1 2 4 5 3 8 7 6 5 4 3 4 3 3 3 3 3 2 2 3 3 4 8 9 10 7 8 10 12 14 13 10 8 9 11 12 14 14 14 15 13 13 14 13 14 12 13 13 12 8 9 7 7 6 6 6 6 5 3 3 3 4 3 1 1
1 1 1 2 3 5 5 3 3 3 3 3 3 5 6 6 5 7 8 5 4 3 2 3 1 7 6 6 6 5 4 4 4 4 4 3 4 1 2 2 3 4 6 6 8 9 5 7 10 12 12 13 13 10 9 9 10 13 14 12 12 11 11 12 14 14 12 13 12 14 14 9 7 7 6 6 7 8 8 5 6 7 7 5 3 3
1 3 4 2 2 4 4 4 3 3 2 3 6 10 9 8 6 5 6 3 6 4 5 2 0 5 8 3 4 5 4 4 4 4 5 4 0 3 2 3 2 4 6 9 9 7 5 8 10 12 12 12 13 13 11 11 12 13 9 10 10 10 11 10 12 13 14 12 12 13 14 13 10 9 8 7 7 7 6 5 5 5 6 6 5 3
3 1 3 3 2 3 3 3 5 1 0 6 10 11 13 10 11 5 3 5 4 4 5 3 4 4 4 1 2 5 4 4 6 5 5 4 1 1 3 6 10 8 8 9 9 6 5 8 10 11 10 10 12 11 11 12 11 8 9 9 9 10 11 10 11 12 12 12 11 9 9 10 10 12 11 9 8 7 6 7 5 5 6 6 5 4
2 2 1 1 1 2 3 4 0 1 2 4 8 12 12 11 7 5 3 4 4 1 4 2 4 4 9 2 2 3 4 5 5 4 1 3 0 2 3 5 7 7 5 4 4 4 4 7 9 10 11 12 11 8 11 12 7 7 9 9 9 10 10 11 10 10 11 11 10 9 9 12 11 10 9 9 9 8 8 7 7 5 5 5 4 4
3 2 2 1 2 2 3 4 2 3 8 8 10 10 12 7 3 3 2 2 2 2 1 2 3 4 6 0 6 6 3 2 1 1 3 3 1 3 3 4 5 5 5 6 6 4 5 6 7 8 9 9 9 10 11 9 7 9 10 12 11 10 10 12 14 12 10 10 10 10 10 12 11 10 8 8 8 7 8 8 7 6 6 5 6 6
2 1 1 0 2 4 3 5 3 6 5 4 3 8 9 1 2 1 1 2 1 3 3 3 4 3 3 3 2 0 2 3 3 3 3 2 2 3 2 4 6 3 5 6 5 6 7 5 5 8 10 10 9 10 11 9 8 8 7 10 13 13 13 13 14 12 10 10 9 9 11 12 12 11 9 8 8 7 7 7 7 6 6 6 6 5
2 2 0 3 3 1 4 3 2 1 5 2 6 7 7 3 3 2 0 3 2 4 2 4 7 5 6 2 3 3 3 3 6 4 3 2 2 3 3 4 5 2 4 4 4 6 8 6 7 8 9 9 9 11 10 10 10 7 4 5 9 10 10 11 13 12 10 10 12 12 12 10 10 10 11 10 9 8 8 7 7 7 7 6 6 5
0 2 2 0 2 3 4 3 5 1 6 5 6 6 4 5 4 4 2 2 4 5 1 10 6 4 6 0 1 4 5 6 5 3 2 3 1 3 4 4 5 7 5 2 4 6 6 6 6 7 8 9 9 9 9 9 9 8 6 7 12 15 10 9 11 12 12 11 11 12 12 12 11 10 10 9 9 9 8 7 7 7 6 7 7 8
2 1 1 2 0 3 3 2 0 2 4 2 0 5 1 2 1 4 3 4 6 11 15 11 2 2 7 2 3 4 4 4 4 3 4 3 3 4 5 4 7 6 4 4 4 5 6 7 6 7 8 8 8 8 8 8 9 9 9 6 9 13 12 11 11 11 13 12 12 10 10 11 11 10 9 9 9 8 7 6 7 7 8 8 7 7
2 3 0 3 1 0 2 1 2 0 1 4 1 2 2 0 1 3 3 4 4 8 11 1 3 3 4 1 3 2 3 3 3 4 3 2 5 4 5 5 6 5 5 5 6 6 6 6 6 6 7 8 7 7 7 8 8 10 11 9 9 9 8 9 12 12 11 12 11 11 11 11 11 11 10 9 8 8 8 8 8 7 6 6 7 7
3 2 3 3 5 3 2 1 0 1 2 3 3 1 1 3 4 3 5 10 10 5 8 3 5 3 2 1 1 4 3 5 6 6 3 4 5 5 4 5 4 4 5 4 4 5 6 5 6 5 6 7 7 7 8 7 8 10 11 8 7 9 10 9 10 12 13 12 11 11 11 10 10 10 10 9 9 9 9 8 8 8 8 8 7 8
0 6 3 4 1 0 0 0 1 3 0 1 1 2 0 3 2 1 4 3 2 3 5 2 9 9 7 8 1 4 6 3 3 4 4 5 6 4 3 3 4 4 4 3 4 4 5 5 5 6 6 6 7 7 8 7 7 10 12 9 6 7 12 10 6 11 12 12 11 11 10 9 9 9 9 9 10 10 10 9 8 7 8 8 8 8
1 4 2 2 4 2 2 1 1 3 4 1 5 2 2 1 1 2 1 6 8 7 8 4 4 9 6 7 0 4 4 10 5 3 4 7 5 3 4 4 4 4 4 4 4 4 6 7 6 6 7 7 8 9 7 9 11 12 11 7 7 9 12 13 7 7 9 10 9 9 9 9 10 10 10 10 10 9 9 9 8 8 8 8 9 10
1 1 2 1 1 4 1 1 1 1 4 4 2 2 1 1 2 1 0 2 1 7 6 12 10 9 1 2 3 6 4 8 6 2 7 5 7 10 9 6 5 5 4 4 4 5 7 7 6 7 7 7 8 9 9 11 11 11 7 8 9 9 10 13 13 10 11 10 10 11 9 9 10 10 10 10 9 9 9 9 9 9 9 10 10 10
1 2 2 1 3 4 1 2 1 1 2 2 2 0 1 0 3 4 1 2 3 3 2 6 14 6 2 3 3 3 5 7 3 6 5 5 6 7 7 7 6 4 4 3 4 6 8 7 7 7 4 4 6 6 7 9 9 7 9 9 11 13 12 10 11 11 10 10 10 11 11 10 10 11 9 10 11 11 11 10 11 9 10 10 10 10
1 2 3 3 3 3 1 1 2 1 1 0 2 2 4 0 1 3 4 2 2 0 3 2 13 16 10 2 3 4 8 3 6 4 5 5 6 8 6 5 4 4 4 4 5 7 8 6 6 6 5 5 7 8 8 9 8 6 6 8 10 10 10 10 10 10 11 10 10 11 10 10 10 9 10 12 11 11 11 10 10 10 10 10 10 10
1 2 2 5 4 2 4 2 4 3 3 2 1 1 1 1 2 1 3 2 1 3 1 5 5 12 3 5 4 6 4 5 7 6 6 7 8 6 4 4 3 2 3 4 6 7 7 7 6 5 8 8 8 8 8 9 8 8 8 9 9 11 12 12 11 10 10 11 10 11 10 10 10 11 13 13 11 11 11 11 11 10 10 10 10 9
3 1 2 6 1 2 2 0 2 6 3 1 1 1 3 3 5 5 2 0 2 2 1 2 5 14 3 3 5 3 5 5 4 4 5 6 4 5 5 5 3 3 3 4 5 7 7 6 4 5 7 9 8 6 7 8 8 7 8 9 10 11 12 11 10 10 11 11 11 11 11 11 11 13 12 12 10 12 12 11 10 10 10 10 10 10
1 1 2 4 4 2 1 3 2 2 1 2 2 4 3 3 5 2 4 1 1 5 8 2 9 12 1 3 6 10 6 9 5 3 3 8 5 5 5 3 2 3 3 4 6 8 8 6 6 6 7 9 9 6 7 9 8 8 10 10 10 10 10 10 10 10 10 10 12 12 12 13 12 12 12 12 11 12 12 11 11 10 10 10 10 10
1 3 1 2 3 7 7 7 4 2 2 2 2 4 3 9 7 3 1 2 2 4 6 3 10 17 13 10 12 9 11 11 4 1 3 3 4 6 5 3 2 3 3 4 7 9 8 6 6 6 7 8 8 7 7 8 9 8 9 9 10 10 10 10 9 9 9 9 10 11 12 12 12 12 12 12 11 12 11 11 11 10 10 10 11 10
1 2 3 4 3 5 6 5 2 2 4 4 4 7 7 3 6 3 1 1 7 4 7 13 14 22 26 20 13 14 12 12 11 5 6 8 6 4 3 3 1 1 2 5 7 8 7 6 6 6 8 9 7 7 8 8 8 9 9 10 9 9 9 9 9 9 9 10 10 11 11 10 10 10 10 10 10 10 10 11 11 11 11 10 10 10
0 2 5 8 9 10 7 9 9 6 10 11 10 7 7 8 9 7 8 10 3 4 14 7 8 11 20 21 18 17 14 11 6 5 7 8 5 5 4 3 3 2 3 5 8 9 7 6 6 7 8 10 7 7 8 7 7 7 8 8 8 9 8 8 9 9 9 10 11 10 11 9 10 10 10 10 10 11 11 11 11 11 10 10 11 10
0 2 2 3 8 6 9 14 13 10 9 9 9 6 6 10 10 14 14 18 5 5 15 21 13 15 22 21 19 15 13 10 5 7 5 4 5 5 5 4 2 2 3 6 8 8 6 7 6 7 9 9 7 9 10 8 7 7 8 8 8 8 9 9 9 10 10 11 11 10 10 10 9 9 10 11 11 11 11 11 11 11 11 11 11 11
0 4 2 2 9 11 12 14 10 10 8 8 9 10 8 10 15 15 18 12 11 15 18 19 20 22 21 22 19 15 10 5 6 4 4 7 8 6 5 3 2 3 4 7 9 7 5 4 4 6 9 8 6 7 9 8 7 7 9 9 8 9 9 9 9 10 11 11 10 10 10 10 10 10 11 11 12 11 11 11 11 11 11 12 12 12
2 2 4 2 3 11 11 7 4 6 5 11 10 9 10 9 9 14 13 13 11 16 19 21 21 22 20 13 12 9 4 5 6 8 8 5 5 6 5 1 1 2 4 7 7 5 4 3 4 6 7 7 6 7 8 7 7 7 8 8 9 9 9 9 10 10 10 11 10 10 10 10 10 10 11 11 11 11 12 12 11 12 12 12 12 13
1 3 1 0 4 8 3 0 4 5 7 9 15 12 11 10 9 9 11 9 6 13 12 8 11 15 14 2 5 5 8 6 9 10 8 6 6 6 2 0 1 3 5 7 6 5 4 3 4 6 6 6 6 7 7 7 7 8 8 8 9 9 9 9 10 10 10 10 10 10 10 10 11 11 12 11 12 12 12 12 12 12 13 13 13 12
3 1 2 2 3 7 1 0 7 9 8 8 10 12 13 12 12 6 6 6 12 9 7 10 15 14 11 8 12 11 8 9 7 6 9 8 6 1 0 1 1 3 5 6 6 4 3 3 3 4 5 5 6 6 7 7 8 8 8 9 9 8 9 10 10 10 10 10 10 10 10 11 11 12 12 12 12 11 11 12 12 13 13 13 13 13
1 0 1 0 2 6 7 11 9 5 5 2 2 1 7 7 8 11 11 12 12 9 10 10 14 14 13 13 13 14 10 9 7 6 2 5 7 1 1 0 2 3 4 4 4 3 3 2 3 3 4 5 6 7 7 7 7 6 7 8 8 9 9 10 9 9 10 10 10 10 10 11 11 12 12 12 12 11 12 12 12 12 11 12 12 12
2 2 2 0 1 6 7 10 5 3 7 1 1 1 1 1 2 8 12 9 8 9 13 15 17 17 15 12 10 10 9 7 5 6 7 1 3 2 1 2 2 3 4 3 3 2 2 2 2 4 4 4 6 5 5 7 5 5 7 7 9 9 10 8 8 8 10 10 10 10 10 11 11 12 11 11 11 11 12 11 12 12 11 11 12 12
4 2 2 2 3 4 2 2 4 9 6 5 2 3 3 2 0 4 14 15 16 18 17 16 18 15 12 11 8 6 6 7 5 5 1 5 3 4 2 3 3 3 4 2 2 1 1 1 2 3 4 4 5 5 5 6 5 6 7 7 8 9 9 8 7 9 9 9 9 9 11 11 11 11 11 12 11 11 12 12 11 12 11 11 11 11
1 0 1 3 3 2 2 2 9 12 17 6 2 2 4 3 4 4 5 17 4 7 10 13 14 11 10 8 6 6 4 6 8 6 3 6 3 4 5 4 3 3 2 1 0 2 1 1 2 3 3 4 5 5 5 4 5 6 6 7 7 8 8 8 7 8 9 9 9 9 10 11 11 11 11 11 11 11 11 12 12 11 9 10 11 12
2 3 1 1 2 2 2 6 5 3 4 5 1 2 2 4 6 4 2 15 3 9 8 10 10 11 8 6 5 4 3 9 13 3 6 4 7 6 4 4 1 1 0 1 1 1 1 1 1 2 3 4 5 3 3 4 4 5 6 6 5 6 7 7 7 8 8 8 9 10 10 11 11 10 10 10 10 11 12 11 10 10 9 10 12 12
4 2 0 2 4 3 1 2 3 2 9 2 4 4 4 4 6 4 2 11 3 6 6 9 10 7 7 6 6 1 3 9 12 5 7 6 4 5 5 3 3 2 2 2 1 2 2 2 3 4 3 4 4 3 4 4 3 4 6 6 5 5 7 7 6 7 7 9 9 10 10 10 10 10 10 10 10 10 11 11 10 10 10 9 9 11
1 1 2 1 4 4 1 3 6 4 8 1 5 5 4 4 5 2 10 9 4 4 6 6 8 8 7 6 3 4 5 10 14 2 6 5 5 5 5 3 3 2 3 2 1 3 3 3 3 3 4 4 4 2 4 2 2 4 5 5 4 5 6 7 6 7 7 8 9 9 10 9 9 10 10 11 11 10 10 9 9 10 10 10 9 10
2 2 5 8 3 5 7 6 4 8 7 1 7 8 5 4 3 3 8 12 3 7 7 7 8 8 7 6 7 6 9 11 7 2 4 4 3 3 3 3 3 4 4 3 3 3 3 4 4 4 5 4 2 2 2 1 1 3 5 5 3 4 6 6 6 5 6 8 9 9 10 9 9 10 10 9 10 10 10 8 9 10 10 10 10 10
2 2 2 3 5 7 5 5 8 9 8 5 4 10 6 2 5 11 5 2 4 5 7 9 9 8 7 10 9 11 10 6 4 2 2 3 4 5 6 6 5 4 4 5 5 4 4 3 4 5 4 3 3 2 1 1 3 3 4 3 4 6 6 6 3 4 7 9 9 9 9 10 10 9 9 9 9 10 10 9 9 9 9 8 9 11
5 5 4 4 4 2 3 3 6 7 2 9 12 3 1 3 9 4 2 4 6 4 5 6 9 8 8 10 11 11 9 6 5 4 4 4 5 5 5 5 5 5 5 4 4 3 3 3 4 5 5 3 3 1 3 2 3 3 4 5 6 5 5 3 3 5 8 8 8 8 9 10 10 10 8 9 9 10 11 9 9 9 8 9 9 10
3 1 2 4 5 2 3 4 7 7 5 12 10 4 7 14 10 4 3 13 6 5 5 6 7 8 8 10 9 8 8 7 5 5 5 6 6 6 5 6 5 6 5 5 6 5 5 4 4 4 4 5 3 2 3 2 3 4 5 6 5 3 3 2 4 6 7 7 8 9 9 9 10 10 9 9 9 9 10 10 9 8 7 8 8 8
7 5 2 3 2 4 7 7 8 3 8 11 10 11 12 11 8 8 7 10 10 9 5 6 9 7 9 9 9 8 7 8 8 7 8 7 6 6 7 7 7 6 6 6 6 5 5 6 5 5 5 4 3 2 2 2 3 5 6 5 3 3 2 3 4 5 6 7 8 9 9 9 9 10 9 8 7 8 8 8 8 8 7 6 7 8
1 3 2 1 6 4 12 17 18 17 15 10 12 12 13 15 13 9 9 10 9 10 6 9 7 7 7 8 8 7 9 7 7 7 7 6 7 7 6 6 7 7 7 7 6 6 5 4 5 5 6 5 3 3 2 3 4 6 6 3 2 2 2 3 4 5 7 8 8 9 9 11 10 9 8 8 7 7 6 7 8 7 7 6 7 7
3 3 2 3 1 6 9 0 5 10 9 8 8 9 12 13 13 10 8 10 12 9 8 8 9 7 8 7 10 10 9 7 8 8 7 7 8 8 8 8 7 7 8 8 7 6 5 4 5 5 4 5 5 3 3 4 5 5 3 2 3 3 2 2 4 6 6 7 8 9 9 9 8 7 7 6 6 6 6 6 6 6 7 6 7 7
2 2 0 7 5 5 14 14 13 13 13 15 13 13 14 12 11 10 11 10 10 8 8 9 6 7 5 8 10 10 10 8 9 9 8 8 8 8 8 8 8 7 7 8 7 7 6 6 6 5 5 5 4 3 3 3 4 4 4 3 3 2 1 3 4 5 6 7 8 8 8 8 11 10 7 7 7 7 7 6 6 6 7 6 7 8
1 3 4 3 4 11 13 19 22 16 15 17 15 10 10 10 9 8 8 9 9 9 9 6 8 9 8 11 8 9 10 11 11 10 10 8 8 8 9 8 8 9 8 8 7 7 8 6 6 6 6 6 3 3 4 4 3 3 4 5 3 2 2 4 5 5 6 7 7 8 8 7 6 6 7 7 7 6 6 7 7 8 8 7 8 8
2 8 5 2 8 9 10 14 6 8 12 10 9 8 8 7 6 8 6 7 9 11 10 9 9 8 9 9 9 10 13 11 10 10 11 10 10 10 9 9 9 9 8 8 7 8 7 6 7 6 7 5 4 4 4 4 4 3 3 3 3 2 3 3 3 4 6 6 6 7 7 7 7 7 7 7 7 8 8 9 13 11 9 8 12 16
7 8 4 5 4 9 12 10 6 7 12 14 14 10 5 5 5 7 11 12 12 11 10 10 10 8 11 12 10 12 13 12 11 10 10 10 10 10 10 10 9 9 9 9 8 7 8 8 6 6 6 6 4 4 4 5 4 3 3 3 4 4 3 3 4 5 5 5 5 7 8 8 7 7 6 7 7 7 8 10 8 12 15 14 13 13
Wind_Direction
73 65 42 43 326 11 46 3 23 324 300 270 258 275 277 297 290 330 321 139 17 348 242 300 293 103 91 80 76 57 67 86 104 104 99 101 103 112 142 156 160 195 209 31 338 316 321 307 293 274 273 271 290 308 336 349 348 346 341 325 315 318 315 316 307 292 293 295 297 294 283 273 267 265 264 254 236 222 204 188 178 143 118 269 277 291
65 69 44 43 358 355 309 322 271 297 262 260 262 244 299 323 312 322 303 111 224 283 283 289 294 113 109 98 87 83 66 85 112 116 115 123 137 147 168 114 176 195 9 330 323 313 299 284 287 327 343 345 340 359 360 350 352 349 349 344 341 339 336 332 328 322 310 280 269 266 274 280 274 288 290 290 276 252 231 183 168 159 175 203 214 246
38 65 79 16 350 338 271 288 353 329 285 259 245 320 313 308 311 296 304 360 332 337 272 283 292 119 119 110 94 92 80 86 94 121 136 139 145 155 166 167 260 336 341 325 316 310 297 310 349 355 347 336 3 356 349 350 355 350 347 346 340 334 327 324 323 319 316 318 293 279 280 275 282 270 262 253 254 273 271 254 228 199 217 201 196 202
63 52 37 315 319 321 81 179 15 336 310 160 15 3 331 322 359 315 305 316 313 301 278 324 300 130 120 95 96 67 110 135 92 97 107 111 145 152 173 80 333 355 340 313 297 302 317 354 359 352 335 323 324 331 4 11 359 349 346 343 337 329 322 315 316 312 315 321 321 311 270 258 254 268 283 279 293 292 290 297 272 237 226 292 247 197
88 48 340 323 279 283 354 47 18 4 341 14 129 281 325 342 319 281 304 317 297 325 14 256 256 163 199 154 154 147 144 127 147 136 158 168 151 235 159 31 10 345 313 302 329 338 352 3 359 346 333 321 325 350 11 6 356 347 343 337 330 319 312 310 321 340 340 329 324 327 327 302 285 264 263 277 282 281 273 260 248 248 228 216 227 87
72 50 326 305 345 38 356 39 27 353 335 323 163 302 337 318 315 305 310 326 313 232 250 340 327 236 180 182 162 161 165 171 171 187 188 186 210 194 30 7 349 309 297 343 346 341 354 1 352 342 332 326 327 348 1 359 360 349 336 330 331 345 350 353 351 352 349 343 334 327 315 310 311 308 307 300 285 263 267 271 293 312 323 320 316 263
107 182 268 310 286 30 10 35 66 11 328 309 298 329 324 311 291 303 305 358 326 329 301 88 197 288 160 191 158 166 180 177 198 210 202 216 203 77 10 6 302 337 336 346 340 331 347 2 350 338 335 332 337 349 353 357 355 349 334 354 5 354 351 352 355 354 350 347 343 338 326 307 300 300 293 289 293 303 305 323 344 351 338 326 324 319
289 48 335 295 37 35 12 3 25 46 329 295 309 320 320 314 313 295 309 300 256 305 286 133 131 292 306 171 157 169 167 194 213 206 220 220 43 21 338 275 348 343 333 339 334 330 1 358 350 337 338 340 340 339 353 355 347 342 5 356 358 359 348 351 352 355 354 350 349 350 349 331 314 309 309 323 322 317 313 310 313 308 300 301 304 311
23 27 16 2 344 42 10 337 312 69 322 259 297 314 308 299 285 270 284 292 281 312 294 151 201 286 268 121 161 147 197 218 215 218 217 213 157 284 270 330 359 352 348 350 334 340 360 356 348 337 334 341 341 345 347 348 344 7 350 346 354 351 345 340 347 348 353 349 346 349 348 355 352 346 336 324 316 311 318 319 311 292 288 288 293 299
17 22 356 341 6 3 309 292 240 118 281 274 290 297 282 274 256 225 193 246 276 75 300 342 348 318 295 171 181 168 248 232 197 216 214 91 348 247 294 1 338 339 329 342 328 339 2 354 343 334 333 333 335 345 350 338 352 350 332 333 345 344 343 334 339 344 336 337 336 336 345 345 344 347 343 349 346 344 346 335 328 323 316 310 312 310
146 61 19 3 59 296 288 286 211 227 232 268 297 297 311 290 205 130 189 204 298 302 199 176 37 38 300 29 159 168 220 127 93 198 136 179 208 306 2 347 320 327 343 336 327 342 346 345 338 337 330 329 338 351 345 336 354 342 340 341 342 343 337 331 328 331 329 330 331 328 330 334 332 335 334 335 337 332 335 331 326 320 312 313 307 306
96 65 360 222 232 270 252 294 182 192 254 309 322 330 306 12 93 136 195 73 58 252 145 45 37 6 273 296 51 198 186 154 167 208 219 240 271 269 350 327 333 351 340 329 331 325 316 316 329 332 331 340 349 349 340 330 334 334 354 345 340 337 332 327 323 322 325 328 329 328 329 326 324 324 322 319 314 315 310 308 304 301 300 298 297 299
205 195 359 170 238 360 321 329 134 230 294 353 332 341 10 322 343 347 123 326 227 284 281 28 11 322 233 224 172 156 169 181 184 204 196 232 281 360 308 300 303 301 328 315 314 315 309 332 347 340 348 349 345 340 332 331 331 329 343 337 320 311 322 320 317 316 327 335 334 330 324 318 318 319 314 309 307 309 304 301 296 297 296 298 298 303
321 304 217 189 346 342 353 33 338 15 350 356 12 346 16 4 16 315 278 231 270 242 265 332 350 251 237 240 223 175 191 191 184 168 163 100 144 262 275 272 296 322 317 304 317 321 334 355 348 355 349 343 336 331 332 332 331 331 332 339 326 331 336 328 328 336 335 331 324 322 320 318 316 309 307 306 304 302 298 298 299 302 305 307 303 303
311 343 35 327 324 323 51 29 92 245 305 319 316 38 70 97 79 315 338 336 296 290 303 293 344 233 335 245 197 158 176 186 167 168 136 177 230 243 254 296 321 320 326 340 344 348 352 350 356 351 345 337 330 326 328 337 334 330 324 334 332 328 334 336 336 336 332 325 319 317 317 316 313 309 307 308 302 297 303 311 314 308 304 298 304 313
206 232 108 346 103 320 69 116 164 283 267 251 175 115 49 118 311 196 270 287 294 308 315 307 195 270 269 123 157 170 139 198 185 177 156 240 244 286 309 311 307 332 352 358 350 346 349 354 349 347 340 332 326 322 328 336 337 330 323 325 324 320 330 338 335 329 322 317 314 313 315 313 313 314 311 307 308 310 311 309 306 310 314 319 318 314
324 243 177 98 8 45 117 227 337 155 55 294 13 25 242 148 153 282 275 237 256 254 247 264 295 322 141 183 187 194 196 222 193 186 191 257 294 287 292 314 357 350 346 353 351 344 348 347 342 343 339 326 322 324 330 333 327 310 305 307 306 313 315 344 331 324 319 311 311 314 311 311 313 312 310 312 323 331 333 332 330 326 322 320 315 309
150 281 162 161 193 186 25 355 42 354 134 306 26 289 41 111 110 124 296 297 214 256 272 315 292 307 356 304 237 216 226 239 226 231 224 248 254 268 292 349 345 338 337 11 4 352 342 335 333 335 330 318 315 324 321 320 328 325 321 316 328 324 320 309 324 328 313 315 315 310 309 308 309 308 319 334 333 328 321 315 313 313 311 310 308 302
105 313 195 228 110 133 356 40 2 326 330 83 160 227 75 315 357 256 287 340 344 321 305 283 275 287 258 266 110 276 305 317 287 256 252 257 247 293 342 344 350 351 17 5 357 348 340 332 332 335 330 334 335 335 347 4 344 326 317 338 346 332 317 321 331 309 307 309 308 311 313 319 324 328 331 326 317 310 306 308 310 313 313 312 309 304
228 160 298 224 135 158 148 89 206 210 328 10 92 65 20 146 215 279 145 231 165 280 348 294 326 288 219 233 242 284 323 295 285 246 243 286 354 353 351 357 4 360 359 1 355 343 334 332 338 336 336 347 349 351 356 348 338 320 341 350 334 330 327 325 337 346 325 323 321 316 315 327 334 328 318 309 309 313 319 321 320 322 323 318 311 305
296 106 292 74 51 91 242 185 266 136 174 182 273 101 131 248 174 145 121 152 186 233 247 298 311 277 207 182 234 278 275 271 322 329 360 15 353 347 351 359 348 350 358 5 353 337 332 337 341 334 334 356 348 352 351 339 322 340 353 350 339 328 325 337 337 331 323 320 314 313 322 329 324 317 317 330 334 327 323 324 321 321 319 316 311 314
254 252 246 305 298 236 171 339 329 39 350 94 151 189 164 140 30 14 286 69 337 124 264 1 285 282 285 226 182 238 252 290 340 38 356 358 348 351 359 350 355 349 5 9 351 338 332 333 339 333 335 360 350 343 348 335 321 340 347 336 328 326 325 323 327 324 318 316 313 318 324 323 319 325 334 331 326 323 321 319 317 315 311 306 302 299
100 317 305 279 246 314 98 26 355 47 63 67 41 162 144 142 146 148 268 284 327 230 184 223 289 275 131 179 196 210 252 2 9 41 1 350 346 345 348 344 346 32 24 6 343 335 333 333 335 342 344 351 348 342 345 332 326 335 339 337 331 332 330 331 330 324 319 313 314 319 321 323 324 326 322 318 315 313 312 310 309 310 304 300 299 296
51 228 277 260 239 30 103 208 75 41 10 348 237 122 125 174 171 176 217 108 249 262 274 238 213 268 245 196 200 245 343 3 34 65 357 335 331 345 341 348 0 28 30 355 341 333 329 327 339 351 346 337 335 338 338 330 324 332 333 330 326 328 329 326 326 323 317 316 321 325 324 323 323 320 319 319 319 317 317 313 308 306 303 301 300 296
34 207 150 287 294 234 282 344 328 349 22 254 195 190 184 85 78 61 89 44 285 216 210 164 258 274 156 205 286 322 330 339 1 19 358 335 343 348 340 338 31 40 10 345 339 332 325 331 343 346 346 339 329 336 335 326 324 327 331 333 327 325 327 324 324 318 318 328 327 325 322 319 318 316 316 318 318 314 313 312 310 307 302 296 288 286
182 285 18 319 338 337 340 332 329 302 225 223 108 143 162 138 146 105 182 159 225 242 188 216 265 273 287 300 302 311 327 322 332 300 345 347 337 339 337 353 38 40 350 342 337 327 325 333 344 348 341 334 326 334 335 325 322 329 333 336 334 330 329 325 320 319 330 332 327 323 321 320 319 321 323 320 315 314 314 311 305 298 294 293 292 291
288 288 266 241 229 244 253 271 295 19 319 273 200 173 192 167 176 153 104 213 231 232 226 239 251 284 295 301 312 315 324 319 323 354 338 338 344 342 342 17 49 65 351 346 331 324 326 338 341 343 342 329 328 339 332 327 331 331 330 330 331 323 322 325 322 326 329 327 324 320 316 316 320 322 319 316 314 313 308 303 300 298 296 296 294 294
216 275 237 239 249 254 268 275 282 303 275 271 266 245 181 171 179 166 175 226 192 9 283 242 230 268 284 297 306 311 316 318 324 329 328 330 332 336 345 347 13 5 358 338 328 327 329 339 342 339 334 327 328 338 327 325 328 326 332 333 331 326 327 324 322 327 327 324 319 317 318 321 322 317 316 315 313 307 302 299 300 300 299 299 297 296
280 280 280 86 263 264 274 271 274 272 252 253 252 241 194 186 171 193 224 234 251 215 247 278 285 285 286 292 294 301 307 310 314 319 318 314 333 341 341 336 339 353 345 327 327 327 338 335 340 335 329 322 333 332 325 320 321 333 337 329 326 328 327 324 325 324 323 323 321 320 321 319 316 317 316 313 307 304 304 303 302 303 304 301 299 297
79 243 316 228 287 280 268 264 257 247 261 258 249 248 242 191 203 208 237 234 218 238 253 272 286 278 277 279 289 296 297 293 309 318 333 338 333 333 327 328 13 348 326 328 328 327 336 344 342 329 324 321 331 329 321 318 326 336 326 327 330 328 326 327 321 323 322 319 318 317 317 316 316 317 314 309 309 307 308 309 309 307 304 302 299 297
123 277 66 320 302 295 288 272 250 222 244 267 259 248 247 244 229 216 235 249 240 261 259 262 271 278 271 272 280 274 269 309 322 329 326 326 328 321 323 18 26 303 316 324 326 326 331 343 339 325 319 318 327 325 320 320 326 328 326 329 329 326 320 320 322 321 321 317 316 317 315 316 318 316 312 311 308 310 311 311 309 306 304 302 300 297
127 263 120 99 327 295 305 171 253 249 252 258 275 265 251 239 248 235 221 218 186 236 251 259 269 268 281 265 251 284 308 322 320 321 322 316 319 318 346 97 279 308 319 323 318 326 337 336 328 320 316 323 325 323 318 318 317 318 325 334 328 319 322 325 321 317 318 318 317 315 316 319 317 314 311 311 311 311 311 309 308 306 304 303 302 300
189 308 346 357 333 259 221 268 308 311 302 289 259 244 230 228 227 243 239 216 211 215 265 266 257 260 287 305 306 301 312 311 313 317 312 314 313 355 126 226 296 307 324 319 317 322 342 335 314 315 321 324 322 316 313 312 315 322 334 331 319 323 324 317 314 317 318 316 313 313 318 318 314 312 311 312 311 311 310 309 307 306 306 304 302 300
105 181 271 211 227 276 321 321 312 342 331 251 218 173 160 212 216 237 243 226 229 181 228 229 259 282 292 298 299 302 311 311 312 310 306 306 314 51 139 212 286 313 315 307 307 326 340 339 322 315 317 318 318 312 307 310 317 341 340 328 324 318 319 314 313 319 318 314 312 315 317 314 313 311 311 311 312 311 311 309 306 307 304 301 302 299
159 144 223 184 245 281 324 319 321 307 247 231 203 59 46 295 296 252 271 274 260 243 250 264 269 274 276 285 289 295 303 310 320 313 311 69 112 139 202 251 295 296 287 294 313 337 325 314 333 318 308 310 300 302 310 308 330 351 338 327 312 315 316 313 315 320 314 309 311 314 313 312 311 311 311 312 311 312 309 307 307 307 307 306 305 302
159 163 239 258 205 298 291 335 358 252 302 293 200 106 58 67 72 10 292 254 240 246 248 258 263 267 276 282 285 295 307 316 320 300 89 129 144 154 220 248 255 272 279 283 306 315 325 325 289 294 296 299 302 301 310 320 345 342 329 321 311 313 313 313 319 316 312 308 310 312 313 312 312 311 311 311 311 310 309 308 308 308 309 306 302 300
175 47 86 281 193 212 275 264 231 294 303 301 85 228 160 171 183 157 267 298 170 228 218 242 257 265 271 271 290 304 335 328 301 276 151 155 181 172 190 226 238 262 268 303 337 299 2 46 315 288 296 295 295 304 304 330 340 337 326 309 304 311 314 312 312 310 306 308 310 310 312 312 310 308 309 311 311 309 309 310 310 307 307 303 306 306
214 167 287 105 280 125 305 315 311 298 282 272 190 90 92 71 81 80 72 289 272 222 207 224 239 252 261 275 288 319 16 316 303 294 193 194 185 160 202 196 220 214 58 297 317 63 89 306 299 323 300 284 286 298 336 339 351 329 310 302 306 315 307 303 304 306 306 306 309 310 311 309 307 307 310 309 307 307 307 307 303 303 307 305 308 307
16 12 55 167 272 7 264 225 257 256 259 196 188 137 105 101 107 129 77 277 279 188 192 202 230 239 243 250 259 82 345 304 297 296 174 198 170 164 192 195 186 198 191 222 200 215 237 269 265 252 264 287 288 315 313 319 357 324 297 297 307 309 301 296 302 306 302 305 310 309 304 303 306 307 305 304 303 303 302 303 304 304 303 299 299 299
175 169 109 280 241 214 224 263 252 225 271 243 151 137 128 94 121 123 333 306 218 229 191 191 217 229 233 230 197 183 212 286 300 318 154 164 166 169 174 195 213 224 236 197 176 160 190 235 264 285 280 281 285 309 294 356 352 305 296 290 299 298 292 294 298 299 307 310 304 300 302 304 305 302 300 300 299 298 296 298 300 302 304 302 299 299
175 246 196 222 215 226 199 262 290 279 272 108 138 129 136 164 116 3 287 299 199 200 212 197 218 220 211 215 176 226 216 219 257 133 148 148 158 165 150 161 176 187 208 204 203 177 206 226 229 253 265 261 278 296 317 38 300 281 283 286 287 285 288 292 300 308 309 304 299 298 302 303 300 299 296 295 295 294 294 295 297 301 301 300 300 296
203 178 220 166 243 228 222 221 245 264 256 133 104 135 155 107 331 302 277 185 173 214 207 201 219 216 208 208 213 227 244 227 238 192 184 178 185 189 180 182 191 206 174 165 177 190 227 220 235 255 267 282 268 277 354 309 272 272 274 279 273 278 293 295 306 311 304 298 298 301 302 299 296 295 295 295 293 292 292 292 292 292 293 294 294 294
191 151 210 197 223 213 229 284 319 301 285 116 128 91 226 154 240 218 250 229 190 215 195 217 207 227 195 231 221 231 244 235 221 213 206 201 193 194 189 186 199 204 203 205 227 224 181 218 240 249 254 255 254 216 278 275 272 271 268 262 270 284 289 301 313 303 295 297 300 300 298 296 296 296 295 292 291 290 291 295 296 293 293 290 293 295
186 125 244 228 167 187 187 190 225 218 150 166 150 216 201 214 251 268 312 292 258 207 225 230 230 217 208 218 232 233 230 233 227 207 207 204 195 189 180 185 185 180 192 198 193 196 173 216 227 231 243 252 228 210 254 258 263 261 260 262 271 287 293 314 302 293 295 295 298 297 295 294 295 293 289 286 287 287 290 295 294 296 294 293 299 300
197 194 194 219 236 159 220 233 246 172 156 203 209 241 258 244 241 244 242 243 270 263 211 228 244 221 204 214 227 227 242 219 227 205 213 217 202 194 198 192 186 193 199 201 202 201 195 200 212 229 243 237 216 222 232 243 256 260 259 264 277 273 282 286 287 292 293 293 293 293 294 295 290 288 285 281 284 290 293 294 297 299 297 302 300 299
263 188 111 59 271 289 277 259 269 282 269 237 224 240 260 270 268 258 248 262 249 248 216 232 240 222 212 199 214 232 226 226 219 219 213 207 200 199 186 181 187 189 190 190 197 195 184 198 209 222 236 227 212 224 218 235 241 257 261 261 263 269 261 279 287 292 288 288 292 292 296 292 288 281 278 285 285 281 284 291 296 295 303 302 298 301
206 115 111 209 296 34 286 245 202 242 259 268 257 242 237 244 255 252 248 240 255 253 243 229 226 221 208 193 210 229 235 209 218 219 209 211 209 203 193 190 191 192 198 200 201 181 188 182 214 225 228 230 217 215 221 233 245 252 261 262 258 260 269 275 284 285 288 291 292 293 289 287 286 288 290 292 289 286 287 287 286 292 296 297 297 301
316 52 120 239 249 214 250 274 278 275 282 283 274 276 274 264 250 242 236 243 247 245 229 231 208 227 187 215 214 221 233 213 214 221 216 212 208 197 195 189 191 197 196 185 184 182 187 192 208 218 218 229 221 214 226 236 244 249 256 259 266 258 252 270 277 279 286 292 292 289 285 282 292 298 298 293 295 296 297 287 283 283 283 285 291 289
162 88 244 167 215 255 272 273 268 281 272 267 271 263 252 257 262 258 242 243 245 245 242 232 202 215 200 224 208 215 230 227 215 214 214 211 201 195 192 191 193 194 188 188 185 174 190 201 213 215 216 228 213 207 223 234 241 249 250 262 259 239 250 259 272 286 287 288 290 287 288 286 289 297 295 293 292 284 275 286 287 283 276 260 249 259
77 249 240 332 283 275 256 271 316 326 307 297 279 275 275 265 251 260 257 248 242 241 238 234 234 218 218 215 209 212 225 229 214 203 214 210 206 196 188 188 190 191 192 182 179 183 194 198 202 213 222 227 203 207 218 225 238 236 236 244 244 240 243 262 277 279 282 282 284 289 292 296 294 290 292 294 298 296 292 276 290 287 281 278 281 281
197 234 143 197 194 262 272 273 280 262 280 277 287 296 275 257 240 251 254 253 250 238 234 230 241 230 224 225 208 213 224 221 218 201 213 209 206 192 189 186 187 188 187 180 180 191 194 200 201 208 218 214 199 208 215 227 227 229 234 235 243 239 238 254 268 270 278 286 286 291 294 293 290 289 289 288 288 294 300 309 298 298 297 297 297 294